Theta_e
316 316 316 315 315 315 315 315 315 315 315 315 315 315 315 316 316 316 317 316 317 317 317 318 319 320 313 302 305 313 347 351 342 323 313 309 306 307 306 306 310 311 316 320 325 322 323
316 315 315 315 315 315 315 315 315 315 315 315 314 315 315 315 315 316 316 316 316 316 317 318 319 320 306 299 312 313 335 332 325 314 311 309 309 311 308 306 310 316 318 321 322 321 321
315 315 315 315 315 314 314 314 314 314 314 314 314 314 314 315 315 315 315 315 315 315 317 320 319 319 309 305 312 314 316 321 321 312 309 310 310 309 307 305 309 321 317 320 319 318 319
315 315 315 314 314 314 314 314 314 314 314 315 315 315 315 314 314 315 315 314 314 316 322 321 322 314 300 315 316 318 313 309 314 310 310 310 310 306 305 307 317 315 314 309 317 318 321
315 316 315 314 314 314 314 314 313 314 314 315 314 315 315 315 315 314 313 313 315 321 321 323 312 307 304 322 313 318 313 310 310 307 309 315 309 303 305 306 306 307 305 308 314 320 319
315 315 314 313 313 314 314 314 314 314 314 314 314 314 314 314 313 312 312 313 313 315 321 321 320 307 309 307 312 316 314 312 308 307 307 304 301 298 298 301 300 304 307 307 311 318 319
315 314 314 313 313 313 314 313 313 313 313 314 314 313 313 313 312 311 308 299 299 300 307 305 306 309 309 312 315 315 313 308 304 301 298 299 296 294 299 301 307 309 311 311 313 319 316
314 314 313 313 313 312 312 312 313 313 313 314 313 313 313 312 311 310 302 296 299 299 293 302 304 306 310 312 308 311 313 306 301 296 297 296 294 300 304 304 306 310 308 310 312 317 316
313 313 313 313 313 313 312 312 313 313 313 313 313 312 312 310 309 302 297 295 302 301 292 299 302 304 305 310 306 308 311 304 300 297 295 293 297 303 304 302 302 303 308 306 311 315 317
313 314 314 313 313 313 312 312 313 312 312 312 312 312 311 308 298 299 298 300 300 300 291 297 300 305 308 310 305 315 314 308 299 298 296 295 301 302 302 303 304 297 305 310 310 310 304
314 314 314 313 313 312 312 312 312 312 312 312 311 311 309 308 299 297 298 299 300 298 285 301 301 311 306 304 304 308 313 306 300 299 297 296 298 300 301 303 306 303 306 307 310 308 306
313 313 312 312 312 312 312 312 312 312 311 311 310 310 309 301 300 301 303 300 297 292 286 299 306 301 302 302 304 307 308 308 306 300 297 300 302 302 302 306 308 307 301 299 299 301 296
312 312 312 312 312 312 312 311 311 311 311 310 308 308 307 306 295 298 297 295 289 286 298 297 297 299 298 298 301 302 301 299 298 292 290 295 298 301 304 300 303 300 295 290 291 293 293
312 312 312 312 312 311 311 311 311 310 310 308 306 306 304 305 301 302 294 289 283 293 295 298 299 299 296 298 299 300 299 297 298 297 291 289 290 298 301 300 298 297 296 290 286 287 294
312 312 312 312 312 311 311 311 310 310 309 307 306 297 296 300 305 298 289 282 285 292 299 298 297 295 294 298 298 299 295 297 299 297 294 289 290 299 302 303 303 296 293 297 290 287 289
311 310 311 311 312 311 311 310 310 310 309 307 300 295 294 304 303 293 285 284 287 296 298 297 292 295 291 294 295 294 294 299 299 300 298 295 289 296 300 302 301 299 299 293 289 286 285
310 310 310 310 311 311 311 310 310 310 308 307 293 288 294 303 297 290 281 283 289 296 297 296 295 294 293 293 294 293 295 300 302 300 299 294 291 292 297 296 296 295 293 292 292 290 287
310 310 310 310 310 310 311 311 310 308 307 303 294 283 297 300 290 286 285 288 295 294 296 295 295 294 293 295 293 294 295 299 304 301 296 296 294 291 293 297 300 299 296 295 293 288 289
311 309 309 309 310 309 309 310 309 308 307 301 292 291 298 297 286 287 292 296 297 295 294 294 294 296 295 293 290 294 297 303 304 301 298 296 289 289 289 292 295 295 296 293 291 291 289
309 310 309 308 309 309 309 310 309 308 308 302 294 287 293 293 290 288 288 291 295 304 298 298 296 296 294 292 293 293 296 305 306 306 319 310 290 292 291 293 295 294 297 296 294 290 290
309 309 309 308 308 309 310 310 309 308 307 303 296 290 293 288 290 291 288 291 295 296 299 299 297 296 295 291 293 293 297 300 306 314 307 297 292 292 298 297 297 297 298 297 295 295 294
309 309 308 308 308 309 309 310 309 308 307 299 293 292 294 292 292 289 290 290 294 295 296 295 296 301 299 295 298 295 298 299 301 304 301 296 292 292 296 298 298 297 298 299 299 298 297
309 308 308 308 308 309 309 310 309 308 303 292 294 297 295 292 290 286 288 292 294 296 298 299 299 298 301 303 304 304 303 307 304 301 300 294 292 289 292 294 294 291 298 298 299 300 301
308 308 308 308 309 308 309 309 309 309 304 296 296 297 292 287 292 292 293 294 293 295 294 297 298 295 304 303 303 302 301 304 307 305 303 300 292 290 290 291 286 297 304 303 302 306 306
308 308 308 308 308 308 308 308 308 308 308 298 297 293 293 289 293 293 294 294 294 295 295 296 299 306 304 299 297 296 297 299 305 309 304 301 293 290 291 287 293 303 307 308 304 304 310
308 307 308 308 308 307 307 308 307 308 308 300 296 297 295 287 288 294 293 294 291 292 293 296 303 302 306 296 296 292 293 297 299 304 305 306 300 294 290 288 289 299 308 314 312 299 310
308 308 308 308 308 307 308 308 308 307 308 301 296 303 298 291 294 295 291 291 295 294 292 296 297 297 306 296 293 291 293 301 298 299 301 301 300 296 294 293 297 307 310 313 300 301 310
308 308 308 308 307 307 307 308 308 307 308 303 295 301 298 293 294 297 298 294 294 294 291 296 296 299 300 297 296 295 294 298 300 304 302 301 299 298 297 294 293 310 309 303 307 310 312
308 308 308 308 307 307 307 307 307 307 307 305 294 299 305 296 295 299 299 301 301 300 295 296 298 298 301 297 298 297 298 300 299 298 308 300 305 302 301 298 307 310 308 312 312 310 312
Wind_Speed
20 21 21 21 20 21 21 21 21 21 22 22 23 23 23 23 24 24 24 23 23 23 20 18 15 12 4 1 14 5 5 5 9 9 8 6 5 5 5 4 4 4 3 4 7 8 9
17 18 19 20 21 22 22 23 23 22 22 22 23 23 24 24 24 25 24 23 24 24 23 18 12 5 2 6 5 4 6 3 7 7 7 6 8 6 4 2 4 1 5 8 7 7 5
18 19 19 19 19 20 21 22 23 25 25 24 24 23 23 24 26 26 26 25 26 26 23 14 5 4 2 20 3 5 3 5 6 6 7 3 3 4 3 1 2 8 7 8 4 4 4
17 19 19 20 20 21 21 21 22 22 24 24 25 25 25 25 26 27 27 27 26 25 15 4 9 3 9 5 1 6 4 2 4 2 5 3 2 2 3 2 4 6 6 6 4 6 7
18 17 18 20 20 21 21 22 23 23 22 22 23 25 26 27 26 26 29 29 25 9 4 11 4 3 11 8 3 3 5 6 8 3 3 3 5 2 2 6 4 6 6 4 5 7 7
18 18 19 20 21 21 20 21 23 23 23 23 23 24 25 27 28 28 31 26 7 4 3 3 2 1 4 1 4 4 3 7 5 7 5 3 4 4 3 4 7 6 7 1 6 7 8
17 18 18 19 20 20 20 21 23 24 24 24 25 26 26 28 28 28 18 5 5 2 1 6 5 6 10 6 4 2 5 5 5 5 7 5 5 8 11 10 7 8 8 13 3 1 2
17 18 19 19 19 20 21 21 22 23 24 25 24 25 26 29 29 28 3 4 4 3 11 11 16 14 13 4 5 9 7 6 4 6 3 4 9 10 8 7 8 9 8 11 1 4 2
17 18 18 18 19 20 20 21 20 21 22 24 25 25 25 30 32 4 3 4 4 3 3 10 7 7 7 13 12 15 10 5 5 6 6 7 5 11 8 5 8 7 18 8 18 7 3
17 17 16 17 18 20 20 21 21 22 22 23 24 25 25 30 4 6 5 3 6 3 4 10 5 7 4 8 7 10 11 9 4 11 9 6 5 13 9 10 9 7 8 14 11 12 9
18 18 17 18 19 20 21 22 22 22 23 24 23 24 23 15 6 4 2 6 7 2 6 6 4 1 3 9 5 8 7 5 10 7 7 8 6 8 6 11 9 9 9 10 12 10 6
17 17 18 19 19 20 21 22 22 23 24 25 24 26 21 1 4 10 10 8 2 6 9 6 3 1 3 3 5 4 6 5 7 7 2 10 3 9 11 5 13 10 8 8 6 4 1
18 19 20 21 19 18 20 22 23 23 24 27 27 28 17 5 7 2 3 3 3 6 3 5 4 3 2 4 5 4 8 7 8 7 6 2 7 3 5 6 2 6 8 2 3 1 7
18 17 17 18 17 16 18 21 22 24 26 28 30 29 3 6 3 3 4 5 6 6 9 2 3 3 3 2 6 2 6 6 2 7 5 8 6 10 4 8 9 7 10 8 7 7 6
18 18 18 18 18 15 17 20 22 23 25 30 29 4 3 4 8 4 5 4 9 8 5 2 3 0 3 3 3 4 3 8 10 10 10 7 7 4 6 6 10 5 5 7 9 2 3
17 18 18 17 18 16 16 19 21 23 25 29 8 6 5 1 7 4 4 6 7 6 2 1 5 3 1 3 5 5 2 4 5 10 6 8 1 6 4 6 3 9 9 4 3 5 5
18 18 19 18 17 17 18 17 19 22 25 25 3 6 3 1 1 5 5 9 9 7 4 7 6 4 3 2 3 2 5 5 5 4 8 8 5 5 5 9 12 3 3 6 6 5 8
18 17 17 17 17 17 19 17 16 18 21 8 4 5 3 2 1 1 4 7 5 5 8 7 5 7 5 6 5 7 9 9 5 7 5 9 8 9 12 5 6 11 11 10 7 6 3
17 18 15 17 17 18 18 17 13 14 14 6 6 5 5 3 1 3 6 5 5 4 5 3 5 6 6 9 5 8 9 10 12 8 7 6 4 8 7 7 1 5 5 7 5 5 9
17 17 15 18 17 17 16 15 11 12 13 5 3 5 4 2 1 1 5 6 5 4 7 6 8 8 5 5 6 6 5 6 7 8 13 9 6 12 18 13 7 6 7 7 9 6 7
19 15 16 17 16 17 18 15 9 10 14 2 2 4 1 4 1 3 1 5 5 5 4 3 3 9 9 8 7 10 11 14 14 1 2 11 11 8 18 11 9 9 9 11 9 7 9
18 17 16 16 17 18 15 12 8 8 11 1 3 3 4 4 4 3 4 4 4 5 3 6 7 7 7 11 14 9 9 8 10 3 4 3 7 10 20 14 13 11 10 10 8 5 4
18 18 17 18 18 18 16 14 10 5 4 2 2 3 2 4 4 1 4 1 7 12 9 13 10 8 10 12 14 12 6 4 6 4 0 2 5 4 17 7 7 6 19 12 6 5 8
19 18 19 19 20 17 18 16 11 4 5 3 3 2 3 6 6 4 7 12 16 12 11 13 13 6 5 11 12 5 5 6 7 5 4 5 2 4 5 6 5 12 2 14 14 5 5
20 20 20 20 19 18 17 15 13 6 7 3 2 1 3 5 8 12 11 7 9 11 12 14 11 7 6 5 3 2 1 3 3 6 0 4 3 3 9 6 4 2 5 4 6 4 3
22 21 20 21 20 17 18 18 15 9 8 3 3 4 3 4 6 12 4 6 7 6 5 5 6 6 4 0 1 6 6 6 4 5 7 7 2 5 1 8 9 4 4 3 2 1 4
22 21 21 21 19 17 17 15 15 12 11 4 3 4 2 4 10 12 8 5 4 3 5 5 9 8 1 1 0 2 4 4 6 12 2 7 5 2 3 4 3 5 7 1 6 5 5
21 19 20 19 18 15 14 16 15 12 13 5 3 5 3 4 12 13 15 13 9 5 4 5 6 3 4 1 2 3 1 1 4 5 12 5 4 1 2 1 3 10 3 5 5 5 9
21 17 18 16 16 14 15 13 11 9 9 5 2 3 3 5 8 13 17 20 19 19 3 3 4 4 3 3 1 2 1 1 2 4 1 4 6 5 3 3 4 5 3 1 3 2 7
Wind_Direction
1 359 358 358 358 356 353 351 350 349 347 345 344 341 338 336 334 330 326 321 316 314 314 312 313 316 328 315 248 312 324 92 135 155 176 153 142 141 173 180 126 210 150 134 117 121 119
359 358 356 354 353 352 351 348 347 346 345 343 342 339 336 334 331 328 323 318 312 312 310 306 298 298 229 253 234 78 94 126 144 127 181 147 175 184 148 163 146 86 136 113 83 113 93
356 355 354 352 351 350 348 346 345 344 342 341 339 338 336 332 330 325 320 314 314 312 307 296 235 190 242 238 185 349 175 186 175 140 147 207 145 101 106 318 234 127 94 69 100 131 112
352 351 350 348 348 346 345 344 344 342 339 337 336 336 334 331 328 324 317 313 314 311 304 157 155 137 243 262 333 298 169 151 156 169 146 170 133 115 165 223 55 94 70 107 220 151 174
348 348 347 347 346 343 342 341 340 339 337 335 334 334 331 329 328 324 316 313 311 305 103 137 106 121 265 320 269 288 160 157 132 102 236 121 124 185 96 114 54 21 151 145 166 209 146
345 345 345 345 344 341 340 339 337 336 336 335 335 333 331 327 328 324 320 310 280 321 184 209 241 10 270 268 308 278 154 155 129 113 93 151 74 109 37 98 185 171 126 155 192 199 164
342 342 340 341 340 340 339 338 337 335 334 333 333 333 332 328 328 325 333 350 9 349 223 216 187 252 294 259 266 234 122 110 108 98 158 193 124 174 189 191 172 150 157 186 121 26 11
339 339 338 339 338 338 339 336 335 334 332 330 331 330 333 329 327 323 322 14 100 220 301 238 246 250 242 73 311 284 135 138 141 181 128 89 202 206 173 158 161 166 152 202 133 146 152
335 334 333 335 336 336 336 333 332 330 329 329 330 328 333 334 322 3 288 236 354 356 257 287 215 234 218 162 212 256 149 151 147 176 184 154 227 145 145 172 143 177 187 170 210 145 140
332 330 329 332 334 336 334 331 331 329 329 326 328 325 336 338 33 331 288 353 347 284 19 279 268 267 144 139 232 208 176 148 154 184 153 209 208 163 153 178 153 160 198 192 148 152 204
331 330 332 333 335 336 333 330 328 329 328 326 324 322 333 338 277 306 280 332 316 110 331 252 258 155 127 162 186 214 172 102 160 156 125 237 171 160 167 184 162 211 162 158 171 171 119
323 326 328 326 329 331 330 328 327 327 327 325 325 316 324 118 259 239 315 326 35 55 248 297 226 145 103 237 286 107 146 100 152 152 138 219 201 168 187 175 179 147 93 58 49 101 181
318 322 325 323 321 325 327 328 327 327 327 322 319 311 304 245 227 116 269 16 57 187 275 254 210 45 267 228 216 202 158 155 151 145 174 247 243 231 148 132 57 86 83 35 51 61 211
311 317 319 318 312 316 324 327 327 327 326 323 320 310 256 203 241 341 23 63 212 223 224 290 313 318 214 16 245 207 124 153 206 116 131 170 224 172 202 162 163 181 155 154 185 181 207
321 316 315 320 322 313 325 327 328 330 329 326 321 321 279 251 179 132 103 180 206 201 219 234 325 308 318 338 97 132 193 187 182 169 171 157 251 282 173 155 142 185 157 187 107 41 96
311 315 320 320 320 320 323 326 331 333 334 328 320 332 281 59 144 101 92 222 216 218 238 179 181 211 211 359 37 57 282 213 201 179 163 205 217 227 201 128 203 160 169 97 354 149 220
307 307 309 312 318 322 316 324 331 334 336 326 21 343 314 142 149 46 185 226 231 236 218 187 199 223 221 46 133 215 247 278 193 186 165 139 125 280 125 203 196 118 160 60 119 131 170
301 308 308 311 311 315 321 319 327 333 338 355 10 324 9 68 59 221 204 198 243 249 221 246 196 196 200 195 219 214 209 221 170 131 160 208 186 217 211 236 194 180 182 167 182 228 224
295 301 305 313 310 314 315 319 324 330 348 324 316 274 303 128 208 282 300 289 253 240 224 208 226 191 203 200 222 200 213 234 233 154 195 180 217 221 309 309 262 195 170 131 116 91 189
302 301 305 311 312 311 311 314 321 323 329 326 308 318 308 51 200 46 338 271 266 273 242 207 219 221 224 238 238 254 232 254 191 192 214 184 184 192 224 227 171 187 175 175 151 151 171
300 295 300 305 306 307 308 306 312 324 329 282 205 255 226 301 300 342 236 292 282 275 335 286 249 219 200 213 228 233 239 263 275 202 274 152 193 195 225 194 177 198 177 168 177 184 173
297 297 295 295 298 303 307 309 308 326 341 317 307 339 346 288 292 293 192 263 295 327 270 263 202 255 261 226 207 215 205 197 231 32 6 323 237 184 234 204 199 217 222 179 195 167 241
291 292 293 293 290 292 298 303 302 302 66 6 287 268 271 278 305 310 240 357 304 326 266 252 295 325 285 262 264 259 239 212 175 95 347 251 171 137 229 177 164 245 223 217 182 179 171
293 292 288 286 286 288 295 297 293 271 161 157 260 264 275 273 245 246 300 310 293 294 284 278 304 262 240 330 285 215 225 153 192 120 174 274 161 131 248 87 172 238 195 206 207 179 209
295 292 291 288 286 281 286 294 280 266 201 155 221 176 273 274 275 278 268 293 304 295 262 270 265 267 331 325 294 193 48 33 17 146 172 230 129 223 190 173 224 138 11 110 149 171 57
287 291 291 290 289 283 281 284 270 258 258 151 236 188 246 273 241 254 322 289 290 287 298 270 314 299 38 119 260 175 178 163 136 11 53 306 297 134 174 151 189 189 304 27 337 231 358
282 284 289 289 292 285 283 283 273 257 251 159 236 187 272 267 264 264 260 269 286 333 279 295 340 335 333 42 111 193 207 166 145 165 118 317 319 103 260 126 284 15 313 209 130 212 306
287 282 277 283 287 284 280 277 275 269 256 160 237 196 200 257 273 264 263 268 281 258 260 317 316 324 317 58 158 266 122 290 92 128 143 198 303 98 254 131 141 3 343 152 168 292 81
288 280 274 279 284 282 278 275 267 267 266 164 226 247 155 243 277 305 273 253 248 244 290 326 300 261 248 294 263 233 322 314 144 153 340 149 176 173 143 188 267 313 19 5 223 183 97